| time (UTC) | temp F | wind direction | speed MPH | gust MPH | rain 1hr in | rain 24hr in | rain mn in | humidity % | barometer mb |
| 20260901170851 | 92 | 184 | 1.0 | 8.0 | 0.00 | 0.00 | 0.00 | 61 | 1022.8 |
| 20260901170346 | 92 | 238 | 3.0 | 8.0 | 0.00 | 0.00 | 0.00 | 62 | 1022.8 |
| 20260901165843 | 92 | 349 | 1.0 | 5.0 | 0.00 | 0.00 | 0.00 | 62 | 1022.8 |
| 20260901165340 | 92 | 329 | 1.0 | 5.0 | 0.00 | 0.00 | 0.00 | 63 | 1022.9 |
| 20260901164839 | 92 | 169 | 1.0 | 6.0 | 0.00 | 0.00 | 0.00 | 64 | 1023.0 |
| 20260901164339 | 91 | 248 | 2.0 | 6.0 | 0.00 | 0.00 | 0.00 | 64 | 1022.9 |
| 20260901163837 | 91 | 203 | 2.0 | 4.0 | 0.00 | 0.00 | 0.00 | 65 | 1023.1 |
| 20260901163353 | 91 | 46 | 1.0 | 4.0 | 0.00 | 0.00 | 0.00 | 64 | 1023.1 |
| 20260901162832 | 91 | 19 | 3.0 | 4.0 | 0.00 | 0.00 | 0.00 | 62 | 1023.2 |
| 20260901162408 | 92 | 26 | 2.0 | 4.0 | 0.00 | 0.00 | 0.00 | 63 | 1023.2 |
| 20260901161847 | 92 | 117 | 1.0 | 4.0 | 0.00 | 0.00 | 0.00 | 63 | 1023.2 |
| 20260901161346 | 92 | 51 | 2.0 | 4.0 | 0.00 | 0.00 | 0.00 | 65 | 1023.3 |
| 20260901160901 | 91 | 43 | 3.0 | 4.0 | 0.00 | 0.00 | 0.00 | 65 | 1023.3 |
| 20260901160335 | 91 | 360 | 2.0 | 4.0 | 0.00 | 0.00 | 0.00 | 65 | 1023.3 |
| 20260901155832 | 91 | 333 | 2.0 | 6.0 | 0.00 | 0.00 | 0.00 | 65 | 1023.4 |
| 20260901155352 | 90 | 113 | 3.0 | 7.0 | 0.00 | 0.00 | 0.00 | 66 | 1023.5 |
| 20260901154846 | 90 | 124 | 2.0 | 8.0 | 0.00 | 0.00 | 0.00 | 66 | 1023.5 |
| 20260901154345 | 90 | 87 | 4.0 | 7.0 | 0.00 | 0.00 | 0.00 | 66 | 1023.6 |
| 20260901153843 | 90 | 153 | 4.0 | 6.0 | 0.00 | 0.00 | 0.00 | 66 | 1023.6 |
| 20260901153359 | 90 | 75 | 2.0 | 5.0 | 0.00 | 0.00 | 0.00 | 67 | 1023.6 |
| 20260901152834 | 89 | 101 | 2.0 | 7.0 | 0.00 | 0.00 | 0.00 | 69 | 1023.7 |
| 20260901152333 | 89 | 144 | 2.0 | 7.0 | 0.00 | 0.00 | 0.00 | 68 | 1023.8 |
| 20260901151851 | 89 | 13 | 2.0 | 4.0 | 0.00 | 0.00 | 0.00 | 69 | 1023.7 |
| 20260901151408 | 89 | 57 | 2.0 | 4.0 | 0.00 | 0.00 | 0.00 | 67 | 1023.8 |
| 20260901150845 | 88 | 20 | 1.0 | 4.0 | 0.00 | 0.00 | 0.00 | 70 | 1023.8 |
| 20260901150340 | 88 | 96 | 2.0 | 4.0 | 0.00 | 0.00 | 0.00 | 70 | 1023.7 |
| 20260901145857 | 87 | 44 | 2.0 | 4.0 | 0.00 | 0.00 | 0.00 | 70 | 1023.7 |
| 20260901145335 | 87 | 75 | 2.0 | 6.0 | 0.00 | 0.00 | 0.00 | 71 | 1023.7 |
| 20260901144853 | 86 | 96 | 2.0 | 6.0 | 0.00 | 0.00 | 0.00 | 72 | 1023.8 |
| 20260901144352 | 86 | 321 | 1.0 | 4.0 | 0.00 | 0.00 | 0.00 | 72 | 1023.8 |
| 20260901143847 | 86 | 321 | 2.0 | 4.0 | 0.00 | 0.00 | 0.00 | 73 | 1023.9 |
| 20260901143343 | 86 | 311 | 1.0 | 6.0 | 0.00 | 0.00 | 0.00 | 73 | 1023.7 |
| 20260901142844 | 86 | 130 | 3.0 | 6.0 | 0.00 | 0.00 | 0.00 | 73 | 1023.6 |
| 20260901142344 | 86 | 121 | 2.0 | 4.0 | 0.00 | 0.00 | 0.00 | 73 | 1023.8 |
| 20260901141840 | 86 | 80 | 2.0 | 4.0 | 0.00 | 0.00 | 0.00 | 73 | 1023.8 |
| 20260901141339 | 86 | 13 | 2.0 | 4.0 | 0.00 | 0.00 | 0.00 | 73 | 1023.7 |
| 20260901140851 | 85 | 74 | 1.0 | 3.0 | 0.00 | 0.00 | 0.00 | 74 | 1023.7 |
| 20260901140407 | 85 | 25 | 2.0 | 4.0 | 0.00 | 0.00 | 0.00 | 74 | 1023.9 |
| 20260901135840 | 85 | 25 | 2.0 | 5.0 | 0.00 | 0.00 | 0.00 | 75 | 1023.8 |
| 20260901135339 | 84 | 64 | 2.0 | 4.0 | 0.00 | 0.00 | 0.00 | 76 | 1023.8 |
| 20260901134836 | 84 | 87 | 1.0 | 3.0 | 0.00 | 0.00 | 0.00 | 76 | 1023.7 |
| 20260901134335 | 84 | 87 | 1.0 | 3.0 | 0.00 | 0.00 | 0.00 | 75 | 1023.6 |
| 20260901133852 | 83 | 88 | 0.0 | 2.0 | 0.00 | 0.00 | 0.00 | 76 | 1023.7 |
| 20260901133346 | 83 | 88 | 0.0 | 3.0 | 0.00 | 0.00 | 0.00 | 77 | 1023.7 |
| 20260901132845 | 83 | 88 | 0.0 | 3.0 | 0.00 | 0.00 | 0.00 | 77 | 1023.7 |
| 20260901132344 | 82 | 88 | 1.0 | 3.0 | 0.00 | 0.00 | 0.00 | 78 | 1023.6 |
| 20260901131842 | 82 | 103 | 1.0 | 3.0 | 0.00 | 0.00 | 0.00 | 79 | 1023.7 |
| 20260901131341 | 81 | 103 | 2.0 | 3.0 | 0.00 | 0.00 | 0.00 | 80 | 1023.7 |
| 20260901130841 | 80 | 104 | 1.0 | 3.0 | 0.00 | 0.00 | 0.00 | 81 | 1023.8 |
| 20260901130357 | 79 | 138 | 1.0 | 2.0 | 0.00 | 0.00 | 0.00 | 83 | 1023.7 |
| 20260901125831 | 78 | 138 | 0.0 | 3.0 | 0.00 | 0.00 | 0.00 | 86 | 1023.7 |
| 20260901125351 | 77 | 138 | 1.0 | 3.0 | 0.00 | 0.00 | 0.00 | 88 | 1023.8 |
| 20260901124846 | 76 | 355 | 1.0 | 2.0 | 0.00 | 0.00 | 0.00 | 89 | 1023.7 |
| 20260901124344 | 75 | 350 | 1.0 | 1.0 | 0.00 | 0.00 | 0.00 | 90 | 1023.7 |
| 20260901123840 | 75 | 350 | 0.0 | 1.0 | 0.00 | 0.00 | 0.00 | 91 | 1023.6 |
| 20260901123336 | 74 | 350 | 0.0 | 1.0 | 0.00 | 0.00 | 0.00 | 91 | 1023.6 |
| 20260901122851 | 74 | 350 | 0.0 | 1.0 | 0.00 | 0.00 | 0.00 | 91 | 1023.5 |
| 20260901122349 | 74 | 350 | 0.0 | 2.0 | 0.00 | 0.00 | 0.00 | 92 | 1023.6 |
| 20260901121845 | 74 | 350 | 1.0 | 2.0 | 0.00 | 0.00 | 0.00 | 92 | 1023.5 |
| 20260901121344 | 73 | 350 | 1.0 | 1.0 | 0.00 | 0.00 | 0.00 | 92 | 1023.4 |
| 20260901120841 | 73 | 350 | 0.0 | 1.0 | 0.00 | 0.00 | 0.00 | 93 | 1023.4 |
| 20260901120356 | 73 | 351 | 0.0 | 0.0 | 0.00 | 0.00 | 0.00 | 94 | 1023.3 |
| 20260901115833 | 72 | 351 | 0.0 | 0.0 | 0.00 | 0.00 | 0.00 | 95 | 1023.2 |
| 20260901115351 | 72 | 351 | 0.0 | 0.0 | 0.00 | 0.00 | 0.00 | 95 | 1023.1 |
| 20260901114847 | 72 | 351 | 0.0 | 0.0 | 0.00 | 0.00 | 0.00 | 95 | 1023.0 |
| 20260901114346 | 72 | 351 | 0.0 | 0.0 | 0.00 | 0.00 | 0.00 | 95 | 1022.9 |
| 20260901113843 | 72 | 351 | 0.0 | 0.0 | 0.00 | 0.00 | 0.00 | 95 | 1022.8 |
| 20260901113339 | 72 | 351 | 0.0 | 0.0 | 0.00 | 0.00 | 0.00 | 95 | 1022.8 |
| 20260901112839 | 72 | 351 | 0.0 | 0.0 | 0.00 | 0.00 | 0.00 | 95 | 1022.7 |
| 20260901112338 | 72 | 351 | 0.0 | 0.0 | 0.00 | 0.00 | 0.00 | 95 | 1022.6 |
| 20260901111834 | 72 | 351 | 0.0 | 0.0 | 0.00 | 0.00 | 0.00 | 95 | 1022.6 |
| 20260901111333 | 72 | 351 | 0.0 | 0.0 | 0.00 | 0.00 | 0.00 | 95 | 1022.4 |
| 20260901110850 | 72 | 351 | 0.0 | 0.0 | 0.00 | 0.00 | 0.00 | 95 | 1022.4 |
| 20260901110345 | 72 | 351 | 0.0 | 0.0 | 0.00 | 0.00 | 0.00 | 95 | 1022.5 |
| 20260901105903 | 72 | 351 | 0.0 | 0.0 | 0.00 | 0.00 | 0.00 | 95 | 1022.3 |
| 20260901105341 | 72 | 351 | 0.0 | 0.0 | 0.00 | 0.00 | 0.00 | 95 | 1022.2 |
| 20260901104837 | 72 | 351 | 0.0 | 0.0 | 0.00 | 0.00 | 0.00 | 95 | 1022.2 |
| 20260901104335 | 72 | 351 | 0.0 | 0.0 | 0.00 | 0.00 | 0.00 | 95 | 1022.3 |
| 20260901103854 | 72 | 351 | 0.0 | 0.0 | 0.00 | 0.00 | 0.00 | 95 | 1022.2 |
| 20260901103347 | 72 | 351 | 0.0 | 0.0 | 0.00 | 0.00 | 0.00 | 95 | 1022.2 |
| 20260901102845 | 72 | 351 | 0.0 | 0.0 | 0.00 | 0.00 | 0.00 | 94 | 1022.2 |
| 20260901102344 | 72 | 350 | 0.0 | 0.0 | 0.00 | 0.00 | 0.00 | 94 | 1022.2 |
| 20260901101841 | 72 | 351 | 0.0 | 0.0 | 0.00 | 0.00 | 0.00 | 94 | 1022.1 |
| 20260901101337 | 72 | 351 | 0.0 | 0.0 | 0.00 | 0.00 | 0.00 | 94 | 1022.2 |
| 20260901100836 | 72 | 351 | 0.0 | 0.0 | 0.00 | 0.00 | 0.00 | 94 | 1022.0 |
| 20260901100332 | 72 | 351 | 0.0 | 0.0 | 0.00 | 0.00 | 0.00 | 94 | 1022.0 |
| 20260901095847 | 73 | 351 | 0.0 | 0.0 | 0.00 | 0.00 | 0.00 | 94 | 1022.0 |
| 20260901095347 | 73 | 351 | 0.0 | 0.0 | 0.00 | 0.00 | 0.00 | 93 | 1022.0 |
| 20260901094843 | 73 | 351 | 0.0 | 0.0 | 0.00 | 0.00 | 0.00 | 93 | 1022.0 |
| 20260901094402 | 73 | 351 | 0.0 | 0.0 | 0.00 | 0.00 | 0.00 | 93 | 1022.0 |
| 20260901093856 | 73 | 351 | 0.0 | 0.0 | 0.00 | 0.00 | 0.00 | 94 | 1022.1 |
| 20260901093331 | 73 | 351 | 0.0 | 0.0 | 0.00 | 0.00 | 0.00 | 94 | 1022.0 |
| 20260901092848 | 73 | 351 | 0.0 | 0.0 | 0.00 | 0.00 | 0.00 | 94 | 1022.0 |
| 20260901092346 | 73 | 351 | 0.0 | 0.0 | 0.00 | 0.00 | 0.00 | 93 | 1022.0 |
| 20260901091844 | 73 | 351 | 0.0 | 0.0 | 0.00 | 0.00 | 0.00 | 93 | 1021.9 |
| 20260901091403 | 73 | 351 | 0.0 | 0.0 | 0.00 | 0.00 | 0.00 | 93 | 1021.9 |
| 20260901090836 | 73 | 351 | 0.0 | 0.0 | 0.00 | 0.00 | 0.00 | 93 | 1021.8 |
| 20260901090332 | 73 | 351 | 0.0 | 0.0 | 0.00 | 0.00 | 0.00 | 92 | 1021.7 |
| 20260901085830 | 73 | 351 | 0.0 | 0.0 | 0.00 | 0.00 | 0.00 | 92 | 1021.8 |
| 20260901085331 | 73 | 351 | 0.0 | 0.0 | 0.00 | 0.00 | 0.00 | 92 | 1021.7 |
| 20260901084848 | 73 | 351 | 0.0 | 0.0 | 0.00 | 0.00 | 0.00 | 92 | 1021.7 |
| 20260901084347 | 73 | 351 | 0.0 | 0.0 | 0.00 | 0.00 | 0.00 | 92 | 1021.7 |
| 20260901083845 | 73 | 351 | 0.0 | 0.0 | 0.00 | 0.00 | 0.00 | 91 | 1021.6 |
| 20260901083358 | 74 | 351 | 0.0 | 0.0 | 0.00 | 0.00 | 0.00 | 91 | 1021.6 |
| 20260901082837 | 74 | 351 | 0.0 | 0.0 | 0.00 | 0.00 | 0.00 | 92 | 1021.6 |
| 20260901082336 | 74 | 351 | 0.0 | 0.0 | 0.00 | 0.00 | 0.00 | 92 | 1021.7 |
| 20260901081832 | 74 | 351 | 0.0 | 0.0 | 0.00 | 0.00 | 0.00 | 92 | 1021.7 |
| 20260901081351 | 74 | 351 | 0.0 | 0.0 | 0.00 | 0.00 | 0.00 | 92 | 1021.5 |
| 20260901080847 | 74 | 351 | 0.0 | 0.0 | 0.00 | 0.00 | 0.00 | 91 | 1021.6 |
| 20260901080343 | 74 | 351 | 0.0 | 0.0 | 0.00 | 0.00 | 0.00 | 91 | 1021.6 |
| 20260901075837 | 74 | 351 | 0.0 | 0.0 | 0.00 | 0.00 | 0.00 | 91 | 1021.7 |
| 20260901075336 | 74 | 351 | 0.0 | 0.0 | 0.00 | 0.00 | 0.00 | 91 | 1021.6 |
| 20260901074834 | 74 | 351 | 0.0 | 0.0 | 0.00 | 0.00 | 0.00 | 91 | 1021.6 |
| 20260901074333 | 74 | 351 | 0.0 | 0.0 | 0.00 | 0.00 | 0.00 | 91 | 1021.5 |
| 20260901073850 | 74 | 351 | 0.0 | 0.0 | 0.00 | 0.00 | 0.00 | 91 | 1021.5 |
| 20260901073406 | 74 | 351 | 0.0 | 0.0 | 0.00 | 0.00 | 0.00 | 91 | 1021.4 |
| 20260901072840 | 74 | 351 | 0.0 | 0.0 | 0.00 | 0.00 | 0.00 | 90 | 1021.4 |
| 20260901072339 | 74 | 351 | 0.0 | 0.0 | 0.00 | 0.00 | 0.00 | 90 | 1021.4 |
| 20260901071837 | 74 | 351 | 0.0 | 0.0 | 0.00 | 0.00 | 0.00 | 89 | 1021.5 |
| 20260901071336 | 75 | 351 | 0.0 | 0.0 | 0.00 | 0.00 | 0.00 | 89 | 1021.7 |
| 20260901070838 | 75 | 351 | 0.0 | 0.0 | 0.00 | 0.00 | 0.00 | 89 | 1021.8 |
| 20260901070353 | 75 | 351 | 0.0 | 0.0 | 0.00 | 0.00 | 0.00 | 89 | 1021.7 |
| 20260901065905 | 75 | 351 | 0.0 | 0.0 | 0.00 | 0.00 | 0.00 | 89 | 1021.8 |
| 20260901065345 | 75 | 351 | 0.0 | 0.0 | 0.00 | 0.00 | 0.00 | 89 | 1021.8 |
| 20260901064841 | 75 | 351 | 0.0 | 0.0 | 0.00 | 0.00 | 0.00 | 88 | 1021.8 |
| 20260901064340 | 75 | 351 | 0.0 | 0.0 | 0.00 | 0.00 | 0.00 | 88 | 1021.8 |
| 20260901063837 | 75 | 351 | 0.0 | 0.0 | 0.00 | 0.00 | 0.00 | 88 | 1021.8 |
| 20260901063333 | 76 | 351 | 0.0 | 0.0 | 0.00 | 0.00 | 0.00 | 88 | 1021.9 |
| 20260901062829 | 76 | 351 | 0.0 | 0.0 | 0.00 | 0.00 | 0.00 | 88 | 1021.9 |
| 20260901062349 | 76 | 351 | 0.0 | 0.0 | 0.00 | 0.00 | 0.00 | 88 | 1022.0 |
| 20260901061844 | 76 | 351 | 0.0 | 0.0 | 0.00 | 0.00 | 0.00 | 87 | 1022.2 |
| 20260901061404 | 76 | 351 | 0.0 | 0.0 | 0.00 | 0.00 | 0.00 | 87 | 1022.0 |
| 20260901060840 | 76 | 351 | 0.0 | 0.0 | 0.00 | 0.00 | 0.00 | 87 | 1022.0 |
| 20260901060336 | 76 | 351 | 0.0 | 0.0 | 0.00 | 0.00 | 0.00 | 87 | 1022.0 |
| 20260901055833 | 76 | 351 | 0.0 | 0.0 | 0.00 | 0.00 | 0.00 | 86 | 1022.0 |
| 20260901055333 | 76 | 351 | 0.0 | 0.0 | 0.00 | 0.00 | 0.00 | 86 | 1022.0 |
| 20260901054847 | 76 | 351 | 0.0 | 0.0 | 0.00 | 0.00 | 0.00 | 86 | 1022.0 |
| 20260901054347 | 76 | 351 | 0.0 | 0.0 | 0.00 | 0.00 | 0.00 | 86 | 1021.9 |
| 20260901053843 | 77 | 351 | 0.0 | 0.0 | 0.00 | 0.00 | 0.00 | 86 | 1022.0 |
| 20260901053343 | 77 | 351 | 0.0 | 0.0 | 0.00 | 0.00 | 0.00 | 85 | 1022.0 |
| 20260901052839 | 77 | 351 | 0.0 | 0.0 | 0.00 | 0.00 | 0.00 | 85 | 1022.0 |
| 20260901052339 | 77 | 351 | 0.0 | 0.0 | 0.00 | 0.00 | 0.00 | 85 | 1022.0 |
| 20260901051835 | 77 | 351 | 0.0 | 0.0 | 0.00 | 0.00 | 0.00 | 85 | 1022.0 |
| 20260901051331 | 77 | 351 | 0.0 | 0.0 | 0.00 | 0.00 | 0.00 | 84 | 1022.0 |
| 20260901050848 | 77 | 351 | 0.0 | 0.0 | 0.00 | 0.00 | 0.00 | 84 | 1022.0 |
| 20260901050344 | 77 | 350 | 0.0 | 0.0 | 0.00 | 0.00 | 0.00 | 84 | 1022.0 |
| 20260901045842 | 77 | 351 | 0.0 | 0.0 | 0.00 | 0.00 | 0.00 | 84 | 1022.0 |
| 20260901045341 | 77 | 351 | 0.0 | 0.0 | 0.00 | 0.00 | 0.00 | 83 | 1021.9 |
| 20260901044839 | 77 | 351 | 0.0 | 0.0 | 0.00 | 0.00 | 0.00 | 83 | 1021.9 |
| 20260901044359 | 77 | 351 | 0.0 | 0.0 | 0.00 | 0.00 | 0.00 | 83 | 1021.9 |
| 20260901043833 | 78 | 350 | 0.0 | 0.0 | 0.00 | 0.00 | 0.00 | 83 | 1021.9 |
| 20260901043348 | 78 | 351 | 0.0 | 0.0 | 0.00 | 0.00 | 0.00 | 83 | 1021.9 |
| 20260901042846 | 78 | 351 | 0.0 | 0.0 | 0.00 | 0.00 | 0.00 | 83 | 1021.7 |
| 20260901042405 | 78 | 351 | 0.0 | 0.0 | 0.00 | 0.00 | 0.00 | 82 | 1021.8 |
| 20260901041843 | 78 | 351 | 0.0 | 0.0 | 0.00 | 0.00 | 0.00 | 82 | 1021.8 |
| 20260901041342 | 78 | 351 | 0.0 | 0.0 | 0.00 | 0.00 | 0.00 | 82 | 1021.9 |
| 20260901040857 | 78 | 351 | 0.0 | 0.0 | 0.00 | 0.00 | 0.00 | 82 | 1021.9 |
| 20260901040336 | 78 | 351 | 0.0 | 0.0 | 0.00 | 0.00 | 0.00 | 81 | 1021.9 |
| 20260901035834 | 78 | 351 | 0.0 | 0.0 | 0.00 | 0.00 | 0.00 | 81 | 1021.9 |
| 20260901035332 | 78 | 351 | 0.0 | 0.0 | 0.00 | 0.00 | 0.00 | 81 | 1021.9 |
| 20260901034909 | 79 | 351 | 0.0 | 0.0 | 0.00 | 0.00 | 0.00 | 81 | 1021.9 |
| 20260901034347 | 79 | 351 | 0.0 | 0.0 | 0.00 | 0.00 | 0.00 | 81 | 1021.9 |
| 20260901033845 | 79 | 351 | 0.0 | 0.0 | 0.00 | 0.00 | 0.00 | 80 | 1021.9 |
| 20260901033359 | 79 | 351 | 0.0 | 0.0 | 0.00 | 0.00 | 0.00 | 80 | 1021.9 |
| 20260901032833 | 80 | 351 | 0.0 | 0.0 | 0.00 | 0.00 | 0.00 | 79 | 1021.8 |
| 20260901032332 | 80 | 351 | 0.0 | 0.0 | 0.00 | 0.00 | 0.00 | 79 | 1021.8 |
| 20260901031831 | 80 | 351 | 0.0 | 0.0 | 0.00 | 0.00 | 0.00 | 78 | 1021.8 |
| 20260901030842 | 80 | 351 | 0.0 | 0.0 | 0.00 | 0.00 | 0.00 | 77 | 1021.9 |
| 20260901030338 | 81 | 351 | 0.0 | 0.0 | 0.00 | 0.00 | 0.00 | 76 | 1021.9 |
| 20260901025831 | 81 | 351 | 0.0 | 0.0 | 0.00 | 0.00 | 0.00 | 76 | 1022.0 |
| 20260901025331 | 81 | 351 | 0.0 | 0.0 | 0.00 | 0.00 | 0.00 | 76 | 1022.1 |
| 20260901024849 | 81 | 351 | 0.0 | 0.0 | 0.00 | 0.00 | 0.00 | 76 | 1022.1 |
| 20260901024348 | 81 | 351 | 0.0 | 0.0 | 0.00 | 0.00 | 0.00 | 76 | 1021.9 |
| 20260901023844 | 81 | 351 | 0.0 | 0.0 | 0.00 | 0.00 | 0.00 | 76 | 1022.0 |
| 20260901023340 | 81 | 351 | 0.0 | 0.0 | 0.00 | 0.00 | 0.00 | 76 | 1021.9 |
| 20260901022836 | 81 | 350 | 0.0 | 0.0 | 0.00 | 0.00 | 0.00 | 76 | 1021.9 |
| 20260901022355 | 81 | 351 | 0.0 | 0.0 | 0.00 | 0.00 | 0.00 | 76 | 1021.9 |
| 20260901021852 | 81 | 350 | 0.0 | 0.0 | 0.00 | 0.00 | 0.00 | 76 | 1021.8 |
| 20260901021349 | 81 | 351 | 0.0 | 0.0 | 0.00 | 0.00 | 0.00 | 75 | 1021.8 |
| 20260901020847 | 81 | 351 | 0.0 | 1.0 | 0.00 | 0.00 | 0.00 | 75 | 1021.8 |
| 20260901020343 | 82 | 351 | 0.0 | 1.0 | 0.00 | 0.00 | 0.00 | 74 | 1021.7 |
| 20260901015859 | 82 | 351 | 1.0 | 1.0 | 0.00 | 0.00 | 0.00 | 73 | 1021.7 |
| 20260901015334 | 82 | 351 | 1.0 | 1.0 | 0.00 | 0.00 | 0.00 | 73 | 1021.5 |
| 20260901014836 | 82 | 350 | 0.0 | 1.0 | 0.00 | 0.00 | 0.00 | 73 | 1021.5 |
| 20260901014334 | 82 | 351 | 0.0 | 2.0 | 0.00 | 0.00 | 0.00 | 73 | 1021.5 |
| 20260901013853 | 82 | 351 | 0.0 | 2.0 | 0.00 | 0.00 | 0.00 | 73 | 1021.4 |
| 20260901013348 | 82 | 351 | 1.0 | 2.0 | 0.00 | 0.00 | 0.00 | 72 | 1021.4 |
| 20260901012847 | 83 | 351 | 1.0 | 3.0 | 0.00 | 0.00 | 0.00 | 72 | 1021.3 |
| 20260901012406 | 83 | 355 | 0.0 | 3.0 | 0.00 | 0.00 | 0.00 | 70 | 1021.4 |
| 20260901011839 | 83 | 355 | 0.0 | 1.0 | 0.00 | 0.00 | 0.00 | 70 | 1021.3 |
| 20260901011338 | 83 | 355 | 0.0 | 1.0 | 0.00 | 0.00 | 0.00 | 70 | 1021.3 |
| 20260901010835 | 83 | 355 | 1.0 | 1.0 | 0.00 | 0.00 | 0.00 | 69 | 1021.2 |
| 20260901010331 | 84 | 355 | 0.0 | 0.0 | 0.00 | 0.00 | 0.00 | 69 | 1021.1 |
| 20260901005828 | 84 | 355 | 0.0 | 0.0 | 0.00 | 0.00 | 0.00 | 68 | 1021.0 |
| 20260901005408 | 84 | 355 | 0.0 | 1.0 | 0.00 | 0.00 | 0.00 | 67 | 1021.0 |
| 20260901004841 | 84 | 355 | 0.0 | 1.0 | 0.00 | 0.00 | 0.00 | 67 | 1020.9 |
| 20260901004359 | 84 | 355 | 1.0 | 1.0 | 0.00 | 0.00 | 0.00 | 66 | 1020.7 |
| 20260901003837 | 84 | 355 | 0.0 | 1.0 | 0.00 | 0.00 | 0.00 | 66 | 1020.6 |
| 20260901003352 | 85 | 355 | 0.0 | 1.0 | 0.00 | 0.00 | 0.00 | 66 | 1020.6 |
| 20260901002847 | 85 | 355 | 0.0 | 1.0 | 0.00 | 0.00 | 0.00 | 66 | 1020.7 |
| 20260901002345 | 85 | 355 | 1.0 | 2.0 | 0.00 | 0.00 | 0.00 | 66 | 1020.6 |
| 20260901001902 | 86 | 355 | 0.0 | 1.0 | 0.00 | 0.00 | 0.00 | 65 | 1020.7 |
| 20260901001337 | 86 | 355 | 0.0 | 1.0 | 0.00 | 0.00 | 0.00 | 65 | 1020.6 |
| 20260901000834 | 86 | 355 | 0.0 | 1.0 | 0.00 | 0.00 | 0.00 | 64 | 1020.7 |
| 20260901000336 | 86 | 355 | 0.0 | 1.0 | 0.00 | 0.00 | 0.00 | 64 | 1020.6 |
| 20260831235851 | 87 | 355 | 0.0 | 0.0 | 0.00 | 0.00 | 0.00 | 63 | 1020.7 |
| 20260831235406 | 87 | 355 | 0.0 | 0.0 | 0.00 | 0.00 | 0.00 | 63 | 1020.7 |
| 20260831234844 | 87 | 355 | 0.0 | 2.0 | 0.00 | 0.00 | 0.00 | 62 | 1020.7 |
| 20260831234403 | 88 | 355 | 1.0 | 2.0 | 0.00 | 0.00 | 0.00 | 61 | 1020.8 |
| 20260831233837 | 88 | 355 | 0.0 | 1.0 | 0.00 | 0.00 | 0.00 | 61 | 1020.7 |
| 20260831233334 | 88 | 355 | 0.0 | 2.0 | 0.00 | 0.00 | 0.00 | 60 | 1020.7 |
| 20260831232829 | 89 | 355 | 0.0 | 2.0 | 0.00 | 0.00 | 0.00 | 59 | 1020.8 |
| 20260831232349 | 89 | 355 | 0.0 | 2.0 | 0.00 | 0.00 | 0.00 | 58 | 1020.7 |
| 20260831231844 | 89 | 355 | 0.0 | 2.0 | 0.00 | 0.00 | 0.00 | 56 | 1020.7 |
| 20260831231344 | 90 | 355 | 0.0 | 2.0 | 0.00 | 0.00 | 0.00 | 56 | 1020.7 |
| 20260831230841 | 90 | 355 | 0.0 | 3.0 | 0.00 | 0.00 | 0.00 | 55 | 1020.7 |
| 20260831230337 | 90 | 348 | 1.0 | 3.0 | 0.00 | 0.00 | 0.00 | 54 | 1020.8 |
| 20260831225834 | 90 | 75 | 0.0 | 1.0 | 0.00 | 0.00 | 0.00 | 53 | 1020.7 |
| 20260831225352 | 91 | 75 | 0.0 | 3.0 | 0.00 | 0.00 | 0.00 | 53 | 1020.8 |
| 20260831224830 | 91 | 75 | 2.0 | 4.0 | 0.00 | 0.00 | 0.00 | 52 | 1020.9 |
| 20260831224348 | 91 | 67 | 2.0 | 4.0 | 0.00 | 0.00 | 0.00 | 51 | 1021.0 |
| 20260831223843 | 91 | 19 | 1.0 | 3.0 | 0.00 | 0.00 | 0.00 | 51 | 1020.9 |
| 20260831223359 | 91 | 17 | 1.0 | 3.0 | 0.00 | 0.00 | 0.00 | 52 | 1020.9 |
| 20260831222835 | 92 | 25 | 1.0 | 4.0 | 0.00 | 0.00 | 0.00 | 50 | 1020.9 |
| 20260831222334 | 92 | 24 | 1.0 | 4.0 | 0.00 | 0.00 | 0.00 | 50 | 1020.9 |
| 20260831221837 | 92 | 22 | 1.0 | 2.0 | 0.00 | 0.00 | 0.00 | 50 | 1020.9 |
| 20260831221336 | 92 | 22 | 0.0 | 3.0 | 0.00 | 0.00 | 0.00 | 50 | 1020.8 |
| 20260831220835 | 92 | 58 | 1.0 | 5.0 | 0.00 | 0.00 | 0.00 | 48 | 1020.9 |
| 20260831220348 | 93 | 72 | 1.0 | 5.0 | 0.00 | 0.00 | 0.00 | 50 | 1021.0 |
| 20260831215843 | 93 | 68 | 3.0 | 5.0 | 0.00 | 0.00 | 0.00 | 49 | 1020.9 |
| 20260831215342 | 93 | 64 | 2.0 | 5.0 | 0.00 | 0.00 | 0.00 | 49 | 1020.9 |
| 20260831214840 | 93 | 65 | 2.0 | 7.0 | 0.00 | 0.00 | 0.00 | 49 | 1021.0 |
| 20260831214339 | 94 | 57 | 3.0 | 8.0 | 0.00 | 0.00 | 0.00 | 48 | 1021.0 |
| 20260831213836 | 94 | 116 | 4.0 | 4.0 | 0.00 | 0.00 | 0.00 | 48 | 1021.1 |
| 20260831213350 | 94 | 104 | 1.0 | 2.0 | 0.00 | 0.00 | 0.00 | 47 | 1021.1 |
| 20260831212907 | 94 | 297 | 0.0 | 2.0 | 0.00 | 0.00 | 0.00 | 46 | 1021.2 |
| 20260831212345 | 94 | 298 | 1.0 | 2.0 | 0.00 | 0.00 | 0.00 | 50 | 1021.2 |
| 20260831211843 | 94 | 22 | 0.0 | 3.0 | 0.00 | 0.00 | 0.00 | 47 | 1021.3 |
| 20260831211341 | 95 | 292 | 1.0 | 5.0 | 0.00 | 0.00 | 0.00 | 46 | 1021.3 |
| 20260831210836 | 95 | 89 | 3.0 | 5.0 | 0.00 | 0.00 | 0.00 | 49 | 1021.4 |
| 20260831210351 | 95 | 191 | 3.0 | 6.0 | 0.00 | 0.00 | 0.00 | 49 | 1021.3 |
| 20260831205845 | 95 | 126 | 2.0 | 6.0 | 0.00 | 0.00 | 0.00 | 50 | 1021.3 |
| 20260831205404 | 95 | 71 | 1.0 | 4.0 | 0.00 | 0.00 | 0.00 | 51 | 1021.2 |
| 20260831204840 | 94 | 72 | 1.0 | 5.0 | 0.00 | 0.00 | 0.00 | 51 | 1021.3 |
| 20260831204343 | 93 | 70 | 3.0 | 5.0 | 0.00 | 0.00 | 0.00 | 53 | 1021.4 |
| 20260831203841 | 93 | 120 | 2.0 | 3.0 | 0.00 | 0.00 | 0.00 | 54 | 1021.4 |
| 20260831203356 | 92 | 321 | 1.0 | 4.0 | 0.00 | 0.00 | 0.00 | 54 | 1021.5 |
| 20260831202834 | 93 | 136 | 1.0 | 3.0 | 0.00 | 0.00 | 0.00 | 53 | 1021.5 |
| 20260831202330 | 93 | 136 | 1.0 | 3.0 | 0.00 | 0.00 | 0.00 | 53 | 1021.8 |
| 20260831201847 | 93 | 140 | 1.0 | 3.0 | 0.00 | 0.00 | 0.00 | 54 | 1021.9 |
| 20260831201346 | 94 | 51 | 0.0 | 4.0 | 0.00 | 0.00 | 0.00 | 52 | 1022.0 |
| 20260831200844 | 95 | 58 | 1.0 | 5.0 | 0.00 | 0.00 | 0.00 | 51 | 1022.0 |
| 20260831200340 | 95 | 49 | 2.0 | 5.0 | 0.00 | 0.00 | 0.00 | 51 | 1022.1 |
| 20260831195837 | 96 | 350 | 2.0 | 5.0 | 0.00 | 0.00 | 0.00 | 51 | 1022.0 |
| 20260831195336 | 97 | 17 | 3.0 | 9.0 | 0.00 | 0.00 | 0.00 | 49 | 1022.2 |
| 20260831194850 | 97 | 158 | 4.0 | 9.0 | 0.00 | 0.00 | 0.00 | 49 | 1022.2 |
| 20260831194348 | 97 | 128 | 3.0 | 9.0 | 0.00 | 0.00 | 0.00 | 49 | 1022.2 |
| 20260831193847 | 97 | 113 | 3.0 | 9.0 | 0.00 | 0.00 | 0.00 | 48 | 1022.3 |
| 20260831193404 | 97 | 68 | 3.0 | 7.0 | 0.00 | 0.00 | 0.00 | 50 | 1022.4 |
| 20260831192838 | 97 | 103 | 2.0 | 4.0 | 0.00 | 0.00 | 0.00 | 50 | 1022.3 |
| 20260831192337 | 96 | 175 | 2.0 | 5.0 | 0.00 | 0.00 | 0.00 | 51 | 1022.3 |
| 20260831191832 | 96 | 158 | 2.0 | 8.0 | 0.00 | 0.00 | 0.00 | 53 | 1022.4 |
| 20260831191411 | 96 | 153 | 1.0 | 8.0 | 0.00 | 0.00 | 0.00 | 53 | 1022.5 |
| 20260831190842 | 96 | 124 | 3.0 | 8.0 | 0.00 | 0.00 | 0.00 | 52 | 1022.5 |
| 20260831190341 | 95 | 114 | 3.0 | 8.0 | 0.00 | 0.00 | 0.00 | 54 | 1022.5 |
| 20260831185839 | 95 | 284 | 2.0 | 6.0 | 0.00 | 0.00 | 0.00 | 53 | 1022.5 |
| 20260831185338 | 95 | 237 | 2.0 | 8.0 | 0.00 | 0.00 | 0.00 | 54 | 1022.5 |
| 20260831184833 | 94 | 169 | 3.0 | 6.0 | 0.00 | 0.00 | 0.00 | 54 | 1022.6 |
| 20260831184410 | 94 | 67 | 2.0 | 3.0 | 0.00 | 0.00 | 0.00 | 53 | 1022.6 |
| 20260831183904 | 94 | 69 | 0.0 | 5.0 | 0.00 | 0.00 | 0.00 | 55 | 1022.8 |
| 20260831183338 | 94 | 229 | 2.0 | 5.0 | 0.00 | 0.00 | 0.00 | 56 | 1022.9 |
| 20260831182836 | 93 | 99 | 1.0 | 6.0 | 0.00 | 0.00 | 0.00 | 58 | 1022.9 |
| 20260831182335 | 93 | 178 | 0.0 | 3.0 | 0.00 | 0.00 | 0.00 | 57 | 1023.0 |
| 20260831181832 | 93 | 277 | 1.0 | 6.0 | 0.00 | 0.00 | 0.00 | 56 | 1023.0 |
| 20260831181411 | 93 | 130 | 3.0 | 7.0 | 0.00 | 0.00 | 0.00 | 57 | 1023.0 |
| 20260831180847 | 93 | 136 | 1.0 | 4.0 | 0.00 | 0.00 | 0.00 | 57 | 1023.1 |
| 20260831180343 | 94 | 11 | 1.0 | 10.0 | 0.00 | 0.00 | 0.00 | 56 | 1023.2 |
| 20260831175839 | 94 | 108 | 6.0 | 10.0 | 0.00 | 0.00 | 0.00 | 57 | 1023.2 |
| 20260831175338 | 94 | 125 | 5.0 | 10.0 | 0.00 | 0.00 | 0.00 | 58 | 1023.2 |
| 20260831174836 | 93 | 157 | 3.0 | 10.0 | 0.00 | 0.00 | 0.00 | 58 | 1023.3 |
| 20260831174335 | 93 | 153 | 3.0 | 8.0 | 0.00 | 0.00 | 0.00 | 58 | 1023.3 |
| 20260831173851 | 92 | 152 | 4.0 | 7.0 | 0.00 | 0.00 | 0.00 | 60 | 1023.3 |
| 20260831173406 | 92 | 173 | 2.0 | 8.0 | 0.00 | 0.00 | 0.00 | 59 | 1023.3 |
| 20260831172841 | 92 | 100 | 4.0 | 8.0 | 0.00 | 0.00 | 0.00 | 58 | 1023.5 |
| 20260831172344 | 92 | 161 | 2.0 | 7.0 | 0.00 | 0.00 | 0.00 | 59 | 1023.4 |
| 20260831171858 | 92 | 44 | 2.0 | 7.0 | 0.00 | 0.00 | 0.00 | 58 | 1023.4 |
| 20260831171336 | 92 | 88 | 2.0 | 8.0 | 0.00 | 0.00 | 0.00 | 59 | 1023.5 |